Weather observations for the past three days for
Provincetown Municipal Airport
Imperial (Metric)
Date Time (edt) Wind (mph) Vis. (mi.) Weather Sky Cond. Temperature (ºF) Relative Humidity Wind Chill (°F) Heat Index (°F) Pressure Precipitation (in)
Air Dwpt 6 hour altimeter (in) sea level (mb) 1 hr 3 hr 6 hr
Max. Min.
23 09:56 E 6 10.00 Overcast FEW008 OVC033 70 69.1 97% 30.04 1017.3
23 08:56 SE 8 10.00 Overcast BKN035 OVC042 68 68 100% 30.03 1016.9
23 07:56 E 5 3.00 Light Rain Fog/Mist FEW011 BKN034 OVC043 66.9 66.9 73 66.9 100% 30.04 1017.2 0.03
23 06:56 Calm 10.00 Light Rain FEW037 OVC055 68 66.9 96% 30.04 1017.1 0.01
23 05:56 SE 5 10.00 Light Rain FEW047 BKN070 68 66.9 96% 30.02 1016.5
23 04:56 S 6 10.00 Light Rain FEW040 BKN075 69.1 68 96% 30.04 1017.1 0.01 0.02
23 03:56 SE 6 9.00 Light Rain BKN042 BKN049 BKN060 71.1 70 96% 30.03 1017.0 0.01
23 02:56 SE 6 10.00 Light Rain BKN120 73 70 90% 30.03 1017.0
23 01:56 S 5 10.00 A Few Clouds FEW120 72 70 73.9 72 94% 30.04 1017.2
23 00:56 S 7 10.00 Fair CLR 72 71.1 97% 30.06 1017.7
22 23:56 S 10 10.00 A Few Clouds FEW120 73 72 96% 30.07 1018.1
22 22:56 S 8 10.00 Fair CLR 73 72 96% 30.09 1018.7
22 21:56 S 7 10.00 Fair CLR 73 71.1 94% 30.09 1018.8
22 20:56 SW 9 10.00 Fair CLR 73 71.1 94% 30.07 1018.3
22 19:56 SW 12 10.00 Fair CLR 73 69.1 84.9 73 87% 30.06 1017.8
22 18:56 SW 16 G 21 10.00 Fair CLR 75 69.1 82% 75 30.06 1017.8
22 17:56 SW 13 10.00 Fair CLR 75.9 71.1 85% 76 30.06 1017.9
22 16:56 SW 14 10.00 Fair CLR 77 70 79% 79 30.06 1018.0
22 15:56 SW 15 G 20 10.00 Fair CLR 81 70 69% 84 30.07 1018.1
22 14:56 S 13 10.00 Partly Cloudy SCT070 84 71.1 65% 89 30.07 1018.3
22 13:56 S 10 10.00 Fair CLR 82.9 72 84 75 70% 88 30.08 1018.6
22 12:56 Vrbl 6 10.00 Fair CLR 82 69.1 65% 85 30.09 1018.9
22 11:56 Vrbl 6 10.00 Fair CLR 81 69.1 67% 84 30.1 1019.3
22 10:56 Vrbl 6 10.00 Fair CLR 81 66 61% 83 30.11 1019.5
22 09:56 E 5 10.00 Fair CLR 80.1 66 62% 82 30.1 1019.2
22 08:56 E 7 10.00 Fair CLR 78.1 66.9 69% 80 30.1 1019.3
22 07:56 E 6 10.00 Fair CLR 75 64.9 75 62.1 71% 77 30.1 1019.3
22 06:56 Calm 10.00 Fair CLR 70 69.1 97% 30.1 1019.1
22 05:56 Calm 0.25 Fog FEW004 SCT055 64.9 64.9 100% 30.09 1018.7
22 04:56 NE 3 10.00 A Few Clouds FEW050 62.1 62.1 100% 30.07 1018.2
22 03:56 Calm 10.00 Mostly Cloudy BKN050 64 64 100% 30.06 1017.9
22 02:56 Calm 10.00 Mostly Cloudy BKN055 66 66 100% 30.06 1017.8
22 01:56 Calm 10.00 Partly Cloudy SCT050 64.9 64 73.9 64.9 97% 30.06 1017.7
22 00:56 Calm 10.00 Mostly Cloudy BKN070 68 68 100% 30.06 1017.8
21 23:56 Calm 10.00 Fair CLR 66 64.9 96% 30.05 1017.5
21 22:56 Calm 10.00 Fair CLR 69.1 66.9 93% 30.04 1017.2
21 21:56 SE 6 10.00 Fair CLR 68 66 93% 30.04 1017.0
21 20:56 Calm 10.00 Fair CLR 70 66 87% 30.03 1016.8
21 19:56 SE 5 10.00 Fair CLR 73.9 66 82 73.9 76% 30.01 1016.2
21 18:56 SE 5 10.00 Fair CLR 77 64 64% 79 30 1015.8
21 17:56 E 7 10.00 A Few Clouds FEW085 79 64.9 62% 81 30 1015.6
21 16:56 E 9 10.00 Mostly Cloudy BKN090 77 63 62% 79 30 1015.7
21 15:56 E 8 10.00 Fair CLR 81 62.1 53% 82 29.99 1015.4
21 14:56 E 9 10.00 Fair CLR 81 62.1 53% 82 29.99 1015.6
21 13:56 NE 8 10.00 Fair CLR 78.1 64 80.1 71.1 62% 80 30 1015.7
21 12:56 NW 7 10.00 Fair CLR 78.1 63 60% 80 30 1015.7
21 11:56 NW 7 10.00 Fair CLR 79 64 60% 81 30 1015.8
21 10:56 W 8 10.00 Fair CLR 78.1 66.9 69% 80 30.01 1016.1
21 09:56 W 10 10.00 Fair CLR 78.1 69.1 74% 80 30 1016.0
21 08:56 W 10 10.00 Fair CLR 75.9 69.1 79% 77 30.01 1016.0
21 07:56 W 12 10.00 Partly Cloudy FEW050 SCT110 72 66.9 73 68 84% 30.01 1016.2
21 06:56 W 9 10.00 A Few Clouds FEW110 69.1 66.9 93% 30 1015.9
21 05:56 SW 9 10.00 Light Rain OVC090 68 66.9 96% 29.99 1015.4
21 04:56 SW 7 10.00 Overcast OVC120 68 66 93% 29.98 1015.0
21 03:56 SW 8 10.00 Light Rain BKN120 68 64.9 90% 29.98 1015.1
21 02:56 SW 9 10.00 Fair CLR 68 64.9 90% 29.99 1015.4
21 01:56 SW 10 10.00 Fair CLR 69.1 64 72 69.1 84% 29.99 1015.5
21 00:56 SW 12 10.00 Fair CLR 69.1 64 84% 30 1015.9
20 23:56 SW 10 10.00 Partly Cloudy SCT090 70 64.9 84% 30.01 1016.2
20 22:56 SW 9 10.00 Mostly Cloudy BKN060 70 64.9 84% 30.02 1016.6
20 21:56 SW 14 10.00 Mostly Cloudy BKN100 71.1 66 84% 30.02 1016.6
20 20:56 SW 15 10.00 Fair CLR 71.1 66.9 87% 30.03 1016.7
20 19:56 SW 15 10.00 Fair CLR 72 66.9 81 72 84% 30.02 1016.6
20 18:56 SW 13 10.00 Fair CLR 72 66 82% 30.02 1016.3
20 17:56 SW 16 10.00 Fair CLR 77 66.9 71% 79 30.02 1016.3
20 16:56 SW 13 G 22 10.00 Fair CLR 78.1 66.9 69% 80 30.03 1016.7
20 15:56 SW 13 G 20 10.00 Fair CLR 80.1 66 62% 82 30.04 1017.1
20 14:56 SW 14 G 20 10.00 Fair CLR 81 66 61% 83 30.05 1017.6
20 13:56 S 13 10.00 Fair CLR 81 64 82.9 69.1 57% 83 30.07 1018.3
20 12:56 SW 10 10.00 Fair CLR 81 63 54% 82 30.09 1018.7
20 11:56 SW 9 10.00 Fair CLR 79 64 60% 81 30.1 1019.2
20 10:56 W 9 10.00 Fair CLR 79 63 58% 81 30.11 1019.4
Date Time (edt) Wind (mph) Vis. (mi.) Weather Sky Cond. Air Dwpt Max. Min. Relative Humidity Wind Chill (°F) Heat Index (°F) altimeter (in) sea level (mb) 1 hr 3 hr 6 hr
6 hour
Temperature (ºF) Pressure Precipitation (in)